This is the latest recevied weather packets stored in our database for station/object KB0BS-13. If no packets are shown the sender has not sent any weather packets the latest 10 day(s).
| Time | Temp. | Humidity | Pressure | Rain* | Wind** | Luminosity | Snow |
|---|---|---|---|---|---|---|---|
| 1777390082 | 8.89° C | 99% | 1004.3 hPa | 0 mm | - | 102 W/m² | - |
| 1777389779 | 8.89° C | 99% | 1004.1 hPa | 0 mm | - | 113 W/m² | - |
| 1777389476 | 8.89° C | 99% | 1004.2 hPa | 1.78 mm | - | 101 W/m² | - |
| 1777389173 | 8.33° C | 99% | 1003.6 hPa | 0 mm | - | 102 W/m² | - |
| 1777388871 | 8.33° C | 99% | 1003.6 hPa | 0 mm | - | 102 W/m² | - |
| 1777388568 | 8.33° C | 99% | 1003.5 hPa | 0 mm | - | 109 W/m² | - |
| 1777388264 | 7.78° C | 99% | 1003.6 hPa | 0 mm | - | 74 W/m² | - |
| 1777387958 | 7.78° C | 99% | 1003.4 hPa | 0 mm | - | 66 W/m² | - |
| 1777387655 | 7.78° C | 99% | 1003.5 hPa | 0 mm | - | 55 W/m² | - |
| 1777387352 | 7.78° C | 99% | 1003.2 hPa | 0 mm | - | 50 W/m² | - |
| 1777387052 | 7.78° C | 99% | 1003 hPa | 0 mm | - | 36 W/m² | - |
| 1777386748 | 7.78° C | 99% | 1003 hPa | 0 mm | - | 41 W/m² | - |
| 1777386446 | 7.78° C | 99% | 1003 hPa | 0 mm | - | 41 W/m² | - |
| 1777386142 | 7.78° C | 99% | 1002.8 hPa | 1.27 mm | - | 37 W/m² | - |
| 1777385839 | 7.78° C | 99% | 1002.6 hPa | 1.27 mm | - | 40 W/m² | - |
| 1777385536 | 7.78° C | 99% | 1002.5 hPa | 0 mm | - | 51 W/m² | - |
| 1777385233 | 8.89° C | 99% | 1002.3 hPa | 1.78 mm | - | 31 W/m² | - |
| 1777384929 | 8.89° C | 99% | 1002.1 hPa | 1.78 mm | - | 61 W/m² | - |
| 1777384627 | 8.89° C | 99% | 1002.1 hPa | 0 mm | - | 57 W/m² | - |
| 1777384326 | 8.89° C | 99% | 1001.9 hPa | 0 mm | - | 69 W/m² | - |
| 1777384022 | 8.89° C | 99% | 1001.7 hPa | 0 mm | - | 35 W/m² | - |
| 1777383717 | 8.89° C | 99% | 1001.6 hPa | 0 mm | - | 33 W/m² | - |
| 1777383415 | 8.89° C | 99% | 1001.6 hPa | 0 mm | - | 57 W/m² | - |
| 1777383111 | 9.44° C | 99% | 1001.7 hPa | 0 mm | - | 47 W/m² | - |
| 1777382808 | 9.44° C | 99% | 1001.4 hPa | 0 mm | - | 34 W/m² | - |
* Rain latest hour (hover to see other rain measurements)
** Current wind speed in m/s (hover to see current wind gust speed)